• In Russia
  • List of Countries
  • For 7 days
  • Water Temperature
  • Satellite Maps
  • Weather Map
  • Weather Widgets
  • user-avatar
    Login

    Hourly Weather Zhornovka

    Today, 15 August, Wednesday

    Time Temperature Precipitation Wind Pressure Humidity
    00:00 +21°C° 0.2 mm 2 mps 743 mmHg 81%
    01:00 +20°C° 0.2 mm 2 mps 743 mmHg 83%
    02:00 +20°C° 0.2 mm 2 mps 743 mmHg 84%
    03:00 +19°C° 0 mm 2 mps 743 mmHg 86%
    04:00 +19°C° 0 mm 2 mps 743 mmHg 89%
    05:00 +18°C° 0 mm 2 mps 743 mmHg 91%
    06:00 +19°C° 0 mm 2 mps 743 mmHg 87%
    07:00 +20°C° 0 mm 3 mps 743 mmHg 83%
    08:00 +21°C° 0 mm 3 mps 744 mmHg 79%
    09:00 +22°C° 0 mm 3 mps 744 mmHg 75%
    10:00 +23°C° 0 mm 4 mps 744 mmHg 70%
    11:00 +23°C° 0 mm 4 mps 744 mmHg 66%
    12:00 +25°C° 0 mm 4 mps 744 mmHg 63%
    13:00 +25°C° 0 mm 4 mps 745 mmHg 60%
    14:00 +26°C° 0 mm 4 mps 745 mmHg 58%
    15:00 +26°C° 0 mm 4 mps 745 mmHg 59%
    16:00 +25°C° 0 mm 3 mps 745 mmHg 61%
    17:00 +25°C° 0 mm 3 mps 745 mmHg 63%
    18:00 +24°C° 0 mm 3 mps 745 mmHg 69%
    19:00 +21°C° 0 mm 2 mps 745 mmHg 74%
    20:00 +20°C° 0 mm 2 mps 745 mmHg 80%
    21:00 +19°C° 0 mm 2 mps 745 mmHg 83%
    22:00 +19°C° 0 mm 2 mps 746 mmHg 86%
    23:00 +18°C° 0 mm 2 mps 746 mmHg 89%

    Tomorrow, 16 August, Thursday

    Time Temperature Precipitation Wind Pressure Humidity
    00:00 +18°C° 0 mm 2 mps 746 mmHg 91%
    01:00 +17°C° 0 mm 2 mps 746 mmHg 92%
    02:00 +17°C° 0 mm 2 mps 746 mmHg 94%
    03:00 +16°C° 0 mm 2 mps 746 mmHg 95%
    04:00 +16°C° 0 mm 2 mps 746 mmHg 96%
    05:00 +16°C° 0 mm 2 mps 746 mmHg 97%
    06:00 +17°C° 0 mm 2 mps 747 mmHg 92%
    07:00 +18°C° 0 mm 2 mps 747 mmHg 87%
    08:00 +20°C° 0 mm 2 mps 747 mmHg 83%
    09:00 +21°C° 0 mm 2 mps 747 mmHg 79%
    10:00 +23°C° 0 mm 2 mps 748 mmHg 74%
    11:00 +22°C° 0 mm 3 mps 748 mmHg 70%
    12:00 +24°C° 0.1 mm 3 mps 748 mmHg 67%
    13:00 +25°C° 0.1 mm 3 mps 748 mmHg 65%
    14:00 +25°C° 0.1 mm 3 mps 748 mmHg 62%
    15:00 +25°C° 0 mm 3 mps 748 mmHg 63%
    16:00 +25°C° 0 mm 3 mps 748 mmHg 64%
    17:00 +24°C° 0 mm 3 mps 748 mmHg 65%
    18:00 +22°C° 0 mm 3 mps 748 mmHg 72%
    19:00 +20°C° 0 mm 2 mps 748 mmHg 79%
    20:00 +18°C° 0 mm 2 mps 748 mmHg 87%
    21:00 +17°C° 0 mm 2 mps 748 mmHg 89%
    22:00 +17°C° 0 mm 2 mps 748 mmHg 91%
    23:00 +16°C° 0 mm 2 mps 748 mmHg 94%

    Day after tomorrow, 17 August, Friday

    Time Temperature Precipitation Wind Pressure Humidity
    00:00 +16°C° 0 mm 2 mps 748 mmHg 94%
    01:00 +15°C° 0 mm 1 mps 749 mmHg 95%
    02:00 +15°C° 0 mm 1 mps 749 mmHg 95%
    03:00 +15°C° 0 mm 1 mps 749 mmHg 96%
    04:00 +15°C° 0 mm 1 mps 749 mmHg 96%
    05:00 +15°C° 0 mm 1 mps 749 mmHg 97%
    06:00 +16°C° 0 mm 1 mps 749 mmHg 91%
    07:00 +19°C° 0 mm 1 mps 749 mmHg 86%
    08:00 +21°C° 0 mm 1 mps 749 mmHg 81%
    09:00 +22°C° 0 mm 1 mps 749 mmHg 74%
    10:00 +24°C° 0 mm 1 mps 749 mmHg 67%
    11:00 +26°C° 0 mm 1 mps 749 mmHg 61%
    12:00 +26°C° 0 mm 1 mps 749 mmHg 58%
    13:00 +27°C° 0 mm 1 mps 749 mmHg 56%
    14:00 +28°C° 0 mm 1 mps 749 mmHg 53%
    15:00 +27°C° 0 mm 1 mps 748 mmHg 55%
    16:00 +27°C° 0 mm 1 mps 748 mmHg 56%
    17:00 +27°C° 0 mm 1 mps 748 mmHg 58%
    18:00 +25°C° 0 mm 2 mps 748 mmHg 65%
    19:00 +23°C° 0 mm 2 mps 748 mmHg 73%
    20:00 +21°C° 0 mm 2 mps 748 mmHg 81%
    21:00 +20°C° 0 mm 2 mps 748 mmHg 85%
    22:00 +19°C° 0 mm 2 mps 748 mmHg 89%
    23:00 +18°C° 0 mm 2 mps 748 mmHg 93%

    18 August, Saturday

    Time Temperature Precipitation Wind Pressure Humidity
    00:00 +18°C° 0 mm 2 mps 748 mmHg 94%
    01:00 +19°C° 0 mm 1 mps 748 mmHg 94%
    02:00 +19°C° 0 mm 1 mps 748 mmHg 95%
    03:00 +18°C° 0.1 mm 1 mps 748 mmHg 96%
    04:00 +18°C° 0.1 mm 1 mps 748 mmHg 96%
    05:00 +18°C° 0.1 mm 1 mps 748 mmHg 96%
    06:00 +19°C° 0.1 mm 1 mps 748 mmHg 92%
    07:00 +21°C° 0.1 mm 1 mps 748 mmHg 88%
    08:00 +22°C° 0.1 mm 1 mps 749 mmHg 84%
    09:00 +23°C° 0.8 mm 1 mps 749 mmHg 78%
    10:00 +25°C° 0.8 mm 1 mps 748 mmHg 72%
    11:00 +26°C° 0.8 mm 1 mps 748 mmHg 66%
    12:00 +26°C° 1.4 mm 1 mps 748 mmHg 67%
    13:00 +26°C° 1.4 mm 2 mps 748 mmHg 67%
    14:00 +26°C° 1.4 mm 2 mps 748 mmHg 68%
    15:00 +26°C° 0.6 mm 2 mps 748 mmHg 71%
    16:00 +25°C° 0.6 mm 2 mps 748 mmHg 74%
    17:00 +25°C° 0.6 mm 2 mps 748 mmHg 77%
    18:00 +24°C° 0.3 mm 1 mps 748 mmHg 82%
    19:00 +22°C° 0.3 mm 1 mps 748 mmHg 86%
    20:00 +21°C° 0.3 mm 1 mps 748 mmHg 91%
    21:00 +21°C° 0 mm 1 mps 748 mmHg 92%
    22:00 +20°C° 0 mm 1 mps 748 mmHg 92%
    23:00 +20°C° 0 mm 1 mps 748 mmHg 93%

    19 August, Sunday

    Time Temperature Precipitation Wind Pressure Humidity
    00:00 +17°C° 0.1 mm 0 mps 748 mmHg 94%
    01:00 +17°C° 0.1 mm 0 mps 748 mmHg 94%
    02:00 +17°C° 0.1 mm 0 mps 748 mmHg 94%
    03:00 +16°C° 0 mm 0 mps 748 mmHg 94%
    04:00 +18°C° 0 mm 1 mps 748 mmHg 95%
    05:00 +18°C° 0 mm 1 mps 748 mmHg 95%
    06:00 +19°C° 0 mm 1 mps 748 mmHg 91%
    07:00 +21°C° 0 mm 1 mps 748 mmHg 87%
    08:00 +22°C° 0 mm 1 mps 748 mmHg 83%
    09:00 +24°C° 0.2 mm 2 mps 748 mmHg 76%
    10:00 +25°C° 0.2 mm 3 mps 748 mmHg 68%
    11:00 +26°C° 0.2 mm 3 mps 748 mmHg 61%
    12:00 +27°C° 0.1 mm 3 mps 748 mmHg 59%
    13:00 +27°C° 0.1 mm 4 mps 748 mmHg 58%
    14:00 +27°C° 0.1 mm 4 mps 748 mmHg 56%
    15:00 +26°C° 0.4 mm 4 mps 748 mmHg 60%
    16:00 +25°C° 0.4 mm 4 mps 748 mmHg 64%
    17:00 +23°C° 0.4 mm 4 mps 748 mmHg 67%
    18:00 +21°C° 0.1 mm 3 mps 748 mmHg 71%
    19:00 +20°C° 0.1 mm 3 mps 748 mmHg 76%
    20:00 +18°C° 0.1 mm 2 mps 748 mmHg 80%
    21:00 +17°C° 0 mm 2 mps 748 mmHg 83%
    22:00 +17°C° 0 mm 2 mps 748 mmHg 86%
    23:00 +16°C° 0 mm 2 mps 749 mmHg 89%

    20 August, Monday

    Time Temperature Precipitation Wind Pressure Humidity
    00:00 +16°C° 0 mm 2 mps 749 mmHg 91%
    01:00 +16°C° 0 mm 2 mps 749 mmHg 93%
    02:00 +16°C° 0 mm 2 mps 749 mmHg 95%
    03:00 +16°C° 0 mm 2 mps 749 mmHg 95%
    04:00 +15°C° 0 mm 2 mps 749 mmHg 95%
    05:00 +15°C° 0 mm 2 mps 749 mmHg 95%
    06:00 +16°C° 0 mm 2 mps 750 mmHg 90%
    07:00 +17°C° 0 mm 2 mps 750 mmHg 85%
    08:00 +18°C° 0 mm 2 mps 750 mmHg 79%
    09:00 +19°C° 0 mm 2 mps 750 mmHg 71%
    10:00 +20°C° 0 mm 2 mps 750 mmHg 62%
    11:00 +22°C° 0 mm 3 mps 750 mmHg 54%
    12:00 +22°C° 0 mm 3 mps 750 mmHg 51%
    13:00 +24°C° 0 mm 3 mps 750 mmHg 48%
    14:00 +24°C° 0 mm 3 mps 750 mmHg 46%
    15:00 +24°C° 0 mm 3 mps 750 mmHg 47%
    16:00 +24°C° 0 mm 3 mps 750 mmHg 49%
    17:00 +22°C° 0 mm 3 mps 750 mmHg 51%
    18:00 +20°C° 0 mm 2 mps 750 mmHg 58%
    19:00 +18°C° 0 mm 2 mps 750 mmHg 64%
    20:00 +18°C° 0 mm 1 mps 750 mmHg 71%
    21:00 +16°C° 0 mm 1 mps 750 mmHg 74%
    22:00 +15°C° 0 mm 1 mps 750 mmHg 76%
    23:00 +15°C° 0 mm 1 mps 750 mmHg 79%
    Show more